Location: Chandrammap?lem
(16.9200°N, 81.0051°E)
Time: 19:32:05
(UTC+00:00)

USA 234 - Pass Details

Date: 29 May 2024
Orbit: 1100 x 1107 km, 123.0° (Epoch: 16 June)

Event Time Altitude Azimuth Distance (km) Brightness Sun altitude
Rises 21:17:54 0° 123° (ESE) 3,915 6.3 -34.2°
Reaches altitude 10° 21:20:32 10° 116° (ESE) 2,957 5.7 -33.7°
Maximum altitude 21:26:33 41° 48° (NE) 1,554 4.4 -32.6°
Drops below altitude 10° 21:32:34 10° 341° (NNW) 2,955 5.7 -31.5°
Sets 21:35:11 0° 334° (NNW) 3,913 6.3 -31.0°
